User: anonymous   Login
Location: Muenchen
(48.1800°N, 11.5800°E)
Time: 06:49:52
(UTC+02:00)
Language:

Cosmos 2233 Rocket - Orbit

View from above orbital plane
View from above orbital plane
View from above satellite
View from above satellite

Ground track
Ground track

The orbit data is extracted from the following two-line orbital elements,

1 22488U 93008B   15115.86667840  .00000015  00000-0  37936-6 0  9992
2 22488 082.9396 301.3334 0024124 259.8725 219.3515 13.77664676116402
Epoch (UTC): 25 April 2015 20:48:01
Eccentricity: 0.0024124
inclination: 82.9396°
perigee height: 954 km
apogee height: 990 km
right ascension of ascending node: 301.3334°
argument of perigee: 259.8725°
revolutions per day: 13.77664676
mean anomaly at epoch: 219.3515°
orbit number at epoch: 11640

The dashed part of the orbit path shows where the satellite is in the earth's shadow,  

DLR